Location: Barrio de Buenos Aires
(28.4500°N, 16.2667°W)
Time: 18:40:31
(UTC+00:00)

CORIOLIS - Pass Details

Date: 24 January 2020
Orbit: 818 x 839 km, 98.7° (Epoch: 26 February)

Event Time Altitude Azimuth Distance (km) Brightness Sun altitude
Rises 18:53:14 0° 168° (SSE) 3,355 7.4 -4.0°
Reaches altitude 10° 18:55:34 10° 169° (SSE) 2,422 6.7 -4.5°
Maximum altitude 19:00:57 83° 257° (WSW) 833 4.3 -5.6°
Drops below altitude 10° 19:06:19 10° 346° (NNW) 2,421 6.6 -6.7°
Sets 19:08:40 0° 347° (NNW) 3,354 7.3 -7.2°
